Location: Newark
(42.8481°N, 0.4872°E)
Time: 17:18:12
(UTC+00:00)

A-11 Canister half - Pass Details

Date: 04 November 2020
Orbit: 1525 x 1683 km, 47.3° (Epoch: 22 November)

Event Time Altitude Azimuth Distance (km) Brightness Sun altitude
Rises 20:01:53 0° 293° (WNW) 4,699 12.5 -36.1°
Reaches altitude 10° 20:05:32 10° 282° (WNW) 3,702 11.8 -36.8°
Maximum altitude 20:12:49 27° 230° (SW) 2,610 10.4 -38.1°
Enters shadow 20:16:50 20° 195° (SSW) 2,981 10.4 -38.8°
Drops below altitude 10° 20:20:07 10° 177° (S) 3,691 - -39.4°
Sets 20:23:46 0° 166° (SSE) 4,683 - -40.0°
